Location: Munkebjergskolens Observatorium
(55.3864°N, 10.3987°E)
Time: 14:41:08
(UTC+02:00)

NOAA 15 - Visible Passes

Search period start: 28 March 2023 00:00
Search period end: 07 April 2023 00:00
Orbit: 797 x 811 km, 98.6° (Epoch: 28 March)

Date Brightness Start Highest point End Pass type
(mag) Time Alt. Az. Time Alt. Az. Time Alt. Az.
28 Mar 5.7 20:30:10 10° S 20:35:19 50° W 20:40:29 10° NNW visible
29 Mar 7.4 21:47:30 10° WSW 21:50:30 15° W 21:53:33 10° NW visible
30 Mar 7.1 21:20:34 10° SW 21:24:44 23° W 21:28:53 10° NW visible
31 Mar 6.4 20:54:14 10° SSW 20:59:03 34° W 21:03:51 10° NNW visible
01 Apr 5.6 20:28:16 10° S 20:33:26 51° W 20:38:37 10° NNW visible
02 Apr 7.4 21:45:30 10° WSW 21:48:36 16° W 21:51:44 10° NW visible
03 Apr 7.0 21:18:37 10° SW 21:22:49 23° W 21:27:03 10° NW visible
04 Apr 6.4 20:52:19 10° SSW 20:57:08 35° W 21:01:59 10° NNW visible
05 Apr 7.9 22:12:11 10° W 22:12:34 10° W 22:12:58 10° WNW visible
06 Apr 7.4 21:43:29 10° WSW 21:46:42 16° W 21:49:54 10° NW visible
